Orbital Elements at Epoch 2459000.5 (2020-May-31.0) TDB
Reference: JPL 12 (heliocentric ecliptic J2000)
Element | Value | Uncertainty (1-sigma) | Units |
e | .165504843063667 | 6.1272e-08 | |
a | 2.657393231372885 | 3.039e-08 | au |
q | 2.217581781656065 | 1.6074e-07 | au |
i | 13.54385294996509 | 8.2854e-06 | deg |
node | 161.7314558922594 | 2.1768e-05 | deg |
peri | 112.6424862830199 | 3.613e-05 | deg |
M | 165.8880741519053 | 3.3934e-05 | deg |
tp | 2458271.387022811656 (2018-Jun-01.88702281) | 0.00014172 | TDB |
period | 1582.275718913029 4.33 | 2.7142e-05 7.431e-08 | d yr |
n | .2275203971702909 | 3.9029e-09 | deg/d |
Q | 3.097204681089706 | 3.5419e-08 | au |
|
| | Orbit Determination Parameters
Additional Information
|